Regional Weather Roundup
Issued by NWS

Home | Current Version | Previous Version | Text Only | Print | Product List | Glossary Off
Versions: 1 2 3 4 5 6 7 8 9 10 11 12 13 14 15 16 17 18 19 20 21 22 23 24 25 26 27 28 29 30 31 32 33 34 35 36 37 38 39 40 41 42 43 44 45 46 47 48 49 50

000
ASUS43 KIND 310959
RWRIN

WEATHER ROUNDUP FOR INDIANA
NATIONAL WEATHER SERVICE INDIANAPOLIS IN
600 AM EDT FRI OCT 31 2014

NOTE: "FAIR" INDICATES FEW OR NO CLOUDS BELOW 12,000 FEET WITH NO
SIGNIFICANT WEATHER AND/OR OBSTRUCTIONS TO VISIBILITY.

* - STATION DOES NOT REPORT WEATHER SUCH AS PRECIPITATION OR FOG.

+ - STATION NOT QUALITY CONTROLLED BY THE NATIONAL WEATHER SERVICE.
    USE DATA WITH CAUTION...ESPECIALLY DEWPOINT AND RELATIVE
    HUMIDITY OBSERVATIONS.

INZ001>003-010>013-019-020-311100-
NORTHWEST INDIANA

CITY           SKY/WX    TMP DP  RH WIND       PRES   REMARKS
GARY /AIRPORT/ LGT RAIN  45  36  70 NW15G32   30.03R
VALPARAISO     NOT AVBL

$$

LMZ046-743>745-311100-
SOUTHERN LAKE MICHIGAN

STATION/POSITION TIME  TEMP WIND        PRES
                       AIR  DIR/SP/G
                 (UTC) (F)  (DEG/KT/KT) (MB)
MICHIGAN CITY    0900   44  310/ 30/ 33   N/A

$$

INZ004-005-014>016-021>024-311100-
NORTH CENTRAL INDIANA

CITY           SKY/WX    TMP DP  RH WIND       PRES   REMARKS
GOSHEN         LGT RAIN  44  39  82 W8        29.94F
SOUTH BEND     LGT RAIN  44  40  85 NW17      29.97S

$$

INZ006>009-017-018-025>027-311100-
NORTHEAST INDIANA

CITY           SKY/WX    TMP DP  RH WIND       PRES   REMARKS
ANGOLA *+      CLOUDY    45  37  76 W3        29.92F
FORT WAYNE     CLOUDY    41  38  89 SW6       29.96F

$$

INZ028-029-035-036-043>045-051>053-311100-
WEST CENTRAL INDIANA

CITY           SKY/WX    TMP DP  RH WIND       PRES   REMARKS
GREENCASTLE +  MOCLDY    43  37  81 CALM      30.01S
LAFAYETTE      CLOUDY    43  39  86 W6        30.00F
TERRE HAUTE    CLOUDY    44  42  93 NW5       30.03S

$$

INZ030>032-037>040-046>048-054>057-064-065-311100-
CENTRAL INDIANA

CITY           SKY/WX    TMP DP  RH WIND       PRES   REMARKS
INDIANAPOLIS   CLOUDY    43  38  82 NW6       29.99F
-EAGLE CREEK   CLOUDY    45  37  73 NW7       29.99F
KOKOMO *+      CLOUDY    43  36  75 W8        29.99S
MT COMFORT *+  MOCLDY    41  34  75 NW6       29.99F
SHELBYVILLE    CLOUDY    46  40  79 W5        29.98F

$$

INZ033-034-041-042-049-050-058-059-311100-
EAST CENTRAL INDIANA

CITY           SKY/WX    TMP DP  RH WIND       PRES   REMARKS
MUNCIE         CLOUDY    43  36  76 W6        29.97F

$$

INZ060-061-067>069-081>083-085>088-311100-
SOUTHWEST INDIANA

CITY           SKY/WX    TMP DP  RH WIND       PRES   REMARKS
EVANSVILLE     CLOUDY    48  44  86 NE7       30.03S
HUNTINGBURG *+ CLOUDY    46  41  81 CALM      30.02S

$$

INZ062-063-066-070>080-084-089>092-311100-
SOUTH CENTRAL AND SOUTHEAST INDIANA

CITY           SKY/WX    TMP DP  RH WIND       PRES   REMARKS
BLOOMINGTON    CLOUDY    44  42  93 CALM      30.01S
SEYMOUR +      CLOUDY    46  45  93 CALM      30.00

$$




USA.gov is the U.S. government's official web portal to all federal, state and local government web resources and services.